Barrow, AK

2:21 AM AKDT on March 25, 2017 (GMT -0800)
Wiley Post-Will Rogers Memorial

Weather History for PABR - August, 2014

Change the Weather History Date:

Thursday, August 14, 2014

  Actual Average Record
Temperature  
Mean Temperature 36 °F 39 °F  
Max Temperature 37 °F 44 °F 71 °F (1936)
Min Temperature 34 °F 34 °F 25 °F (1953)
Degree Days  
Heating Degree Days 29 26  
Month to date heating degree days 406 351  
Since 1 June heating degree days 2167 1978  
Since 1 July heating degree days 1234 1098  
Cooling Degree Days 0    
Month to date cooling degree days 0  
Year to date cooling degree days 0  
Since 1 June cooling degree days 0  
Moisture  
Dew Point 35 °F    
Average Humidity 0    
Maximum Humidity 0    
Minimum Humidity 0    
Precipitation  
Precipitation 0.01 in 0.03 in 0.50 in (2002)
Month to date precipitation 0.02 0.48  
Year to date precipitation 4.12 2.48  
Snow  
Snow T in 0.00 in 0.40 in (1953)
Month to date snowfall T 0.2  
Since 1 June snowfall 1.8 1.1  
Since 1 July snowfall 0.9 0.4  
Snow Depth 0.00 in    
Sea Level Pressure  
Sea Level Pressure 29.92 in    
Wind  
Wind Speed 23 mph (East)    
Max Wind Speed 30 mph    
Max Gust Speed 39 mph    
Visibility 5 miles    
Events      
T = Trace of Precipitation, MM = Missing Value Source: NWS Daily Summary

Daily Weather History Graph

Daily Weather History Graph

Search for Another Location

Airport or City:

Trip Planner

Search our weather history database for the weather conditions in past years. The results will help you decide how hot, cold, wet, or windy it might be!

Date:

Astronomy

Aug. 14, 2014 Rise Set
Actual Time 4:59 AM AKDT 11:58 PM AKDT
Civil Twilight 3:04 AM AKDT 1:59 AM AKDT
Nautical Twilight Sun does not rise Sun does not rise
Astronomical Twilight Sun does not rise Sun does not rise
Moon 10:31 PM AKDT (8/14) 1:37 PM AKDT (8/14)
Length of Visible Light 22h 54m
Length of Day
18h 58m
Waning Gibbous, 78% of the Moon is Illuminated
Aug 14
Waning Gibbous
Aug 17
Last Quarter
Aug 25
New
Sep 2
First Quarter
Sep 8
Full

Hourly Weather History & Observations

Time (AKDT) Temp. Windchill Dew Point Humidity Pressure Visibility Wind Dir Wind Speed Gust Speed Precip Events Conditions
12:53 AM 35.1 °F 24.1 °F 34.0 °F 96% 29.95 in 10.0 mi ENE 19.6 mph - N/A   Scattered Clouds
1:53 AM 35.1 °F 23.8 °F 34.0 °F 96% 29.95 in 10.0 mi ENE 20.7 mph - N/A   Scattered Clouds
2:53 AM 35.1 °F 23.8 °F 34.0 °F 96% 29.94 in 10.0 mi ENE 20.7 mph - N/A   Scattered Clouds
2:55 AM 35.1 °F 23.8 °F 34.0 °F 96% 29.94 in 10.0 mi ENE 20.7 mph - N/A   Scattered Clouds
3:53 AM 35.1 °F 23.8 °F 34.0 °F 96% 29.94 in 10.0 mi ENE 20.7 mph - N/A   Mostly Cloudy
4:21 AM 35.1 °F 24.5 °F 34.0 °F 96% 29.93 in 10.0 mi East 18.4 mph - N/A   Mostly Cloudy
4:53 AM 36.0 °F 25.3 °F 35.1 °F 97% 29.93 in 10.0 mi East 19.6 mph - N/A   Overcast
5:15 AM 35.1 °F 24.5 °F 34.0 °F 96% 29.93 in 6.0 mi East 18.4 mph - N/A   Overcast
5:26 AM 35.1 °F 24.5 °F 35.1 °F 100% 29.94 in 1.8 mi East 18.4 mph 26.5 mph N/A   Overcast
5:53 AM 35.1 °F 23.5 °F 35.1 °F 100% 29.94 in 1.0 mi East 21.9 mph 28.8 mph N/A   Overcast
6:01 AM 35.1 °F 23.5 °F 35.1 °F 100% 29.94 in 0.8 mi East 21.9 mph 27.6 mph N/A   Overcast
6:46 AM 35.1 °F 24.5 °F 35.1 °F 100% 29.93 in 1.0 mi East 18.4 mph - N/A   Overcast
6:53 AM 35.1 °F 24.8 °F 35.1 °F 100% 29.94 in 1.0 mi East 17.3 mph - N/A   Overcast
7:53 AM 35.1 °F 24.5 °F 35.1 °F 100% 29.94 in 1.2 mi East 18.4 mph - 0.00 in   Light Drizzle
8:53 AM 35.1 °F 23.5 °F 35.1 °F 100% 29.93 in 1.5 mi East 21.9 mph 26.5 mph 0.00 in   Light Drizzle
9:32 AM 35.1 °F 23.5 °F 35.1 °F 100% 29.93 in 2.0 mi East 21.9 mph - 0.00 in   Overcast
9:53 AM 35.1 °F 24.1 °F 35.1 °F 100% 29.93 in 1.8 mi East 19.6 mph 28.8 mph 0.00 in   Overcast
10:04 AM 35.1 °F 23.8 °F 34.0 °F 96% 29.93 in 3.0 mi East 20.7 mph - N/A   Overcast
10:53 AM 35.1 °F 23.8 °F 35.1 °F 100% 29.92 in 3.0 mi East 20.7 mph 27.6 mph N/A   Overcast
11:53 AM 36.0 °F 24.4 °F 35.1 °F 97% 29.93 in 6.0 mi East 23.0 mph - N/A   Overcast
12:17 PM 36.0 °F 24.7 °F 35.1 °F 97% 29.92 in 6.0 mi East 21.9 mph 28.8 mph N/A   Overcast
12:53 PM 36.0 °F 24.2 °F 35.1 °F 97% 29.92 in 5.0 mi East 24.2 mph 33.4 mph 0.00 in   Light Drizzle
1:01 PM 37.0 °F 25.4 °F 35.1 °F 93% 29.92 in 5.0 mi East 25.3 mph 33.4 mph 0.00 in   Light Drizzle
1:38 PM 37.0 °F 26.2 °F 36.0 °F 96% 29.92 in 5.0 mi East 21.9 mph 29.9 mph 0.00 in   Light Drizzle
1:53 PM 37.0 °F 26.2 °F 36.0 °F 96% 29.92 in 6.0 mi East 21.9 mph 29.9 mph 0.00 in   Light Drizzle
2:23 PM 37.0 °F 25.9 °F 36.0 °F 96% 29.91 in 5.0 mi East 23.0 mph 32.2 mph 0.00 in   Light Drizzle
2:53 PM 37.0 °F 25.9 °F 36.0 °F 96% 29.92 in 6.0 mi East 23.0 mph - 0.00 in   Light Drizzle
3:53 PM 37.0 °F 25.4 °F 35.1 °F 93% 29.91 in 5.0 mi East 25.3 mph 31.1 mph 0.00 in   Light Drizzle
4:53 PM 37.0 °F 25.4 °F 36.0 °F 96% 29.91 in 8.0 mi East 25.3 mph 32.2 mph 0.00 in   Overcast
5:53 PM 37.0 °F 25.9 °F 36.0 °F 96% 29.90 in 5.0 mi East 23.0 mph 32.2 mph 0.00 in   Overcast
6:53 PM 37.0 °F 25.1 °F 36.0 °F 96% 29.90 in 5.0 mi East 26.5 mph 32.2 mph 0.00 in   Overcast
7:53 PM 36.0 °F 23.2 °F 36.0 °F 100% 29.89 in 5.0 mi East 28.8 mph 35.7 mph 0.00 in   Light Drizzle
8:53 PM 36.0 °F 23.9 °F 35.1 °F 97% 29.88 in 5.0 mi East 25.3 mph 32.2 mph 0.00 in   Light Drizzle
9:53 PM 36.0 °F 23.9 °F 35.1 °F 97% 29.88 in 4.0 mi East 25.3 mph 32.2 mph 0.00 in   Overcast
10:53 PM 36.0 °F 23.7 °F 35.1 °F 97% 29.88 in 5.0 mi East 26.5 mph 34.5 mph N/A   Overcast
11:06 PM 36.0 °F 24.7 °F 36.0 °F 100% 29.88 in 4.0 mi East 21.9 mph 34.5 mph N/A   Overcast
11:53 PM 36.0 °F 24.2 °F 35.1 °F 97% 29.88 in 5.0 mi East 24.2 mph 33.4 mph N/A   Overcast